Vorticity
nan nan nan nan nan nan nan nan nan nan nan nan nan nan nan nan nan nan nan nan nan nan nan nan nan nan nan nan nan nan nan nan nan nan nan nan nan nan nan nan nan nan nan nan nan nan nan
nan 14 23 22 8 7 6 6 6 7 6 6 7 7 6 5 4 5 5 5 5 5 5 6 8 16 13 8 16 10 7 7 5 4 6 8 10 10 9 7 6 4 8 8 4 7 nan
nan 5 10 22 26 10 7 8 8 7 7 7 8 7 6 5 5 5 5 5 5 5 4 8 14 15 9 7 8 10 5 5 6 5 5 6 9 8 9 11 8 7 9 15 11 14 nan
nan 6 6 5 19 23 18 10 9 8 8 8 7 7 8 6 5 5 5 5 4 4 7 12 13 13 6 10 9 6 8 8 11 8 3 5 8 9 8 6 9 11 8 10 16 17 nan
nan 3 4 5 6 13 17 20 15 10 9 8 8 9 8 7 5 5 5 5 8 13 13 12 11 9 7 8 11 11 7 6 9 10 10 8 9 7 8 11 7 12 12 3 4 9 nan
nan 6 7 6 6 6 7 12 18 21 13 10 10 9 9 7 4 3 9 18 16 15 18 11 4 5 9 10 10 9 5 7 5 6 13 11 6 5 5 7 2 8 7 4 9 1 nan
nan 2 6 10 6 5 6 6 8 16 21 15 10 11 10 7 5 3 8 18 17 12 11 5 3 -2 -0 9 7 7 6 9 7 7 7 7 6 4 6 3 3 2 7 7 5 4 nan
nan 5 4 5 6 7 7 6 7 6 19 21 13 14 10 6 4 6 7 7 11 6 6 10 7 10 11 5 3 5 8 10 9 6 3 8 9 4 6 6 10 6 8 8 7 10 nan
nan 8 5 6 7 7 8 7 6 7 9 23 23 13 10 7 3 5 8 7 4 8 13 15 16 15 22 19 6 5 5 5 4 6 9 7 8 10 5 2 6 9 8 8 9 11 nan
nan 9 7 6 6 8 7 9 8 4 7 19 23 14 7 -0 4 9 10 12 7 8 11 17 15 9 12 12 18 19 14 9 7 6 8 11 9 9 8 11 8 4 7 7 11 10 nan
nan 8 9 8 8 7 6 11 7 4 7 14 21 13 -1 -4 9 8 8 9 12 11 6 11 11 10 15 5 5 12 16 14 8 9 13 4 4 17 16 12 10 9 10 7 5 6 nan
nan 9 7 8 7 7 7 12 10 4 6 15 19 9 -5 -3 9 9 7 7 9 10 9 7 10 10 6 3 3 6 7 5 10 13 9 8 8 9 6 4 10 9 9 11 14 13 nan
nan 8 8 9 7 7 7 8 10 7 5 9 13 9 -2 6 10 7 6 10 10 5 8 12 6 8 8 9 5 6 5 2 5 8 6 11 21 18 7 5 7 9 6 11 14 16 nan
nan 10 10 10 8 7 8 8 7 7 6 11 24 5 -2 9 12 8 8 10 10 12 1 -0 14 19 7 6 13 11 2 8 9 3 3 7 7 24 24 14 4 14 12 4 6 7 nan
nan 9 10 10 9 7 8 8 6 8 15 19 10 2 9 11 8 8 11 8 11 6 1 3 12 12 14 13 10 12 12 10 7 12 11 9 4 -1 14 22 6 8 13 8 7 6 nan
nan 8 9 8 8 9 9 7 7 11 20 4 -4 10 10 12 7 7 9 9 9 1 -1 10 17 7 5 14 12 8 8 13 17 14 12 10 12 7 12 10 7 7 3 9 12 12 nan
nan 8 7 8 10 10 8 8 9 14 9 -5 5 10 10 7 7 11 9 9 6 4 8 9 5 4 7 9 13 10 5 4 12 14 8 11 9 5 13 10 6 4 9 5 12 12 nan
nan 9 6 7 7 8 10 8 8 13 4 -2 9 11 11 6 4 8 10 9 4 3 13 13 8 11 17 11 6 8 11 2 4 12 15 7 4 12 6 4 8 20 22 11 8 9 nan
nan 8 9 6 5 7 9 10 9 11 0 -2 8 11 12 9 9 5 5 8 4 11 8 7 12 11 10 10 13 12 6 4 13 16 15 10 7 8 15 15 10 13 11 11 11 14 nan
nan 10 10 7 7 8 9 8 8 13 -3 -3 9 7 12 8 6 16 12 7 5 11 10 5 10 7 9 8 8 11 10 8 7 11 8 11 11 8 6 7 7 0 2 11 10 6 nan
nan 12 9 9 8 8 10 9 9 15 -4 -7 10 11 13 14 9 4 6 16 13 5 12 6 7 10 4 6 10 11 8 9 8 7 6 8 9 10 7 7 8 8 12 7 5 7 nan
nan 14 11 8 9 9 7 7 10 14 -0 -3 7 8 10 16 21 11 3 3 6 11 11 4 9 12 6 8 6 11 10 7 11 10 7 4 8 12 11 15 15 15 12 7 10 9 nan
nan 14 10 9 9 8 7 8 9 11 -0 -1 6 8 12 13 13 11 15 9 7 5 9 14 9 12 14 13 7 7 10 10 10 9 7 5 10 9 8 9 16 24 13 9 7 11 nan
nan 13 9 8 8 9 10 9 7 8 -2 -4 9 11 9 11 11 7 11 14 9 4 -0 11 14 9 12 11 11 8 10 17 13 8 5 10 10 5 6 11 15 11 15 16 10 5 nan
nan 11 9 9 10 11 10 9 10 10 -1 -4 6 9 10 11 6 13 9 7 13 14 10 7 15 14 12 5 7 8 9 13 17 16 8 9 10 10 11 6 9 11 13 14 18 10 nan
nan 10 10 10 11 10 8 8 10 10 0 0 5 6 9 16 14 9 14 11 6 13 18 15 15 11 7 9 12 12 9 8 11 18 17 5 6 5 8 9 11 7 4 11 18 15 nan
nan 11 9 9 9 9 9 8 10 12 4 -2 9 9 3 11 13 14 6 10 11 6 13 16 9 6 8 10 10 10 10 9 10 12 16 13 10 9 6 8 7 8 8 14 12 12 nan
nan 10 8 9 9 9 9 12 15 16 8 -1 4 12 6 3 17 9 5 9 17 6 9 7 4 14 13 9 9 10 9 13 14 13 10 11 8 12 12 11 8 8 14 17 10 14 nan
nan nan nan nan nan nan nan nan nan nan nan nan nan nan nan nan nan nan nan nan nan nan nan nan nan nan nan nan nan nan nan nan nan nan nan nan nan nan nan nan nan nan nan nan nan nan nan
CAPE
0 2 1 0 0 0 0 0 0 0 0 0 0 0 0 0 0 0 0 0 0 0 0 0 0 0 0 0 0 0 0 0 0 0 0 0 0 0 0 0 0 0 0 0 0 0 0
0 0 0 0 0 0 0 0 0 0 0 0 0 0 0 0 0 0 0 0 0 0 0 0 0 0 0 0 0 0 0 0 0 0 0 0 0 0 0 0 0 0 0 0 0 0 0
0 0 0 0 0 0 0 0 0 0 0 0 0 0 0 0 0 0 0 0 0 0 0 0 0 0 0 0 0 0 0 0 0 0 0 0 0 0 0 0 0 0 0 0 0 0 0
0 0 0 0 0 1 0 0 0 0 0 0 0 0 0 0 0 0 0 0 0 0 0 0 0 0 0 0 0 0 0 0 0 0 0 0 0 0 0 0 0 0 0 0 0 0 0
0 0 0 0 0 0 0 0 0 0 0 0 0 0 0 0 0 0 0 0 0 0 0 0 0 0 0 0 0 0 0 0 0 0 0 0 0 0 0 0 0 0 0 0 0 0 0
4 5 1 0 0 0 0 0 0 1 0 0 0 0 0 0 0 0 0 0 0 0 0 0 0 0 0 0 0 0 0 0 0 0 0 0 0 0 0 0 0 0 0 0 0 0 0
9 1 7 7 1 0 0 0 0 0 0 0 0 0 0 0 0 0 0 0 0 0 0 0 0 0 0 0 0 0 0 0 0 0 0 0 0 0 0 0 0 0 0 0 0 0 0
6 2 4 0 0 1 0 0 0 0 0 0 0 0 1 1 0 0 0 0 0 0 0 0 0 0 0 0 0 0 0 0 0 0 0 0 0 0 0 0 0 0 0 0 0 0 0
20 3 10 0 0 0 0 1 0 0 0 0 0 1 3 1 0 0 0 0 0 0 0 0 0 0 0 0 0 0 0 0 0 0 0 0 0 0 0 0 0 0 0 0 0 0 0
15 3 18 12 3 2 0 4 3 0 0 0 0 1 1 0 0 0 0 0 0 0 0 0 0 0 0 0 0 0 0 0 0 0 0 0 0 0 0 0 0 0 0 0 0 0 0
27 26 24 16 21 24 27 15 14 0 0 0 2 2 0 0 0 0 0 0 0 0 0 0 0 0 0 0 0 0 0 0 0 0 0 0 0 0 0 0 0 0 0 0 0 0 0
34 31 25 20 24 21 38 23 25 1 0 0 4 1 0 0 0 0 0 0 0 0 0 0 0 0 0 0 0 0 0 0 0 0 0 0 0 0 0 0 0 0 0 0 0 0 0
39 31 26 28 23 32 45 34 29 13 0 2 14 3 0 0 0 0 0 0 0 8 0 0 0 0 0 0 0 0 0 0 0 0 0 0 0 0 0 0 0 0 0 0 0 0 0
46 42 30 28 27 38 49 45 42 38 14 0 1 1 0 0 0 0 0 0 5 0 0 0 0 0 0 0 0 0 0 0 0 0 0 0 0 0 0 0 0 0 0 0 0 0 0
45 51 51 40 34 42 57 49 38 27 34 29 1 0 0 0 0 0 0 14 0 0 0 0 0 0 0 0 0 0 0 0 0 0 0 0 0 0 0 0 0 0 0 0 7 0 0
45 57 54 59 56 61 59 64 51 37 45 11 0 0 0 0 0 0 0 0 0 0 0 0 2 0 0 0 0 0 0 0 0 0 0 0 0 0 0 0 0 0 0 0 0 0 2
70 63 52 53 53 60 62 54 63 56 37 7 0 6 0 3 0 0 0 0 0 0 0 0 3 0 0 0 0 0 0 0 0 0 0 0 0 0 0 0 0 0 0 9 13 17 10
58 71 58 60 63 60 64 89 80 77 25 12 8 6 1 2 0 0 0 0 0 0 0 0 0 5 0 0 0 0 0 0 0 0 0 0 1 0 0 0 0 0 0 1 0 0 0
70 64 65 65 53 55 63 70 83 81 44 4 12 1 1 1 2 0 0 0 0 0 0 0 0 8 0 0 0 0 0 0 0 0 4 3 0 0 1 2 0 1 0 0 0 0 0
86 80 77 62 81 76 74 76 78 76 68 8 0 0 1 1 1 2 3 1 0 0 0 0 0 5 0 0 0 0 0 0 0 0 0 21 15 4 2 1 3 13 1 0 0 0 0
98 100 81 69 68 78 74 76 78 67 78 1 1 0 0 0 2 20 14 0 0 0 1 0 0 8 1 0 0 0 0 2 1 0 0 1 5 6 0 0 0 0 0 0 0 0 4
111 105 89 81 72 70 79 71 62 62 97 49 0 6 0 0 0 5 1 0 0 4 2 0 0 0 0 0 0 0 0 0 0 0 0 0 13 0 0 0 0 0 0 0 0 0 0
139 133 105 90 90 88 94 68 47 75 106 28 10 1 4 0 0 0 0 4 0 2 0 0 4 16 3 0 0 0 0 0 0 5 0 0 3 6 0 0 0 0 0 0 0 0 0
103 125 124 109 113 113 109 71 57 62 109 16 6 24 14 0 1 0 0 0 0 0 0 9 21 2 0 0 0 0 0 0 13 19 18 23 30 16 1 0 1 0 0 0 0 0 0
150 164 159 138 117 118 119 94 66 56 103 33 7 2 18 8 0 2 2 0 0 0 0 0 39 3 0 0 0 0 0 0 0 0 0 0 33 6 0 0 0 0 0 0 1 0 0
164 170 164 145 134 109 100 104 87 70 85 55 24 5 1 18 3 0 0 0 0 0 0 2 0 0 0 0 0 2 0 0 0 0 0 0 19 0 1 16 3 0 0 0 0 0 0
151 158 159 151 134 112 101 88 86 82 71 55 18 5 37 11 0 16 0 0 10 2 0 0 0 1 0 0 6 0 0 0 5 3 0 0 0 1 1 7 0 0 0 0 0 0 0
119 129 121 106 124 98 79 76 79 78 81 107 8 5 25 24 20 2 0 0 11 0 5 0 0 0 0 0 0 0 8 5 6 45 0 0 4 6 0 1 1 0 0 0 0 0 0
93 93 85 85 51 39 34 62 86 79 77 98 15 6 49 40 20 3 1 0 0 4 0 0 0 0 0 0 0 0 1 38 45 16 1 1 0 0 0 0 0 3 0 0 0 0 0